Wind_Speed
40 40 42 44 45 43 42 43 45 44 43 40 41 47 50 47 48 48 47 48 48 46 46 43 39 43 46 44 42 39 36 36 39 43 45 44 43 46 49 51 51 49 47 45 43 41 40 39 38 37 36 35 34 33 33 32 32 31 31 31 31 30 29 29 29 29 29 29 29 29 29 29 29 29
41 41 41 43 44 44 42 42 45 46 44 42 39 41 45 46 47 47 46 46 48 47 47 43 37 41 47 47 44 41 37 36 39 42 44 45 45 45 48 51 52 51 49 47 44 43 42 42 41 40 38 37 35 34 34 33 33 33 33 33 33 32 32 31 31 31 31 31 31 31 31 31 31 31
41 42 43 43 43 44 43 43 46 47 45 44 42 41 43 44 44 45 46 46 47 47 47 46 42 41 45 47 46 43 40 37 39 43 44 45 45 44 46 50 51 50 49 47 45 44 44 44 44 42 40 39 37 36 36 35 35 35 35 35 34 34 34 34 33 33 33 32 32 32 32 32 32 31
40 42 44 44 44 45 45 44 45 48 47 47 45 44 44 42 40 44 48 47 47 47 48 48 47 45 44 46 47 45 42 40 40 42 44 44 44 43 44 46 48 49 48 47 45 45 45 46 45 44 42 41 39 39 38 38 37 36 36 35 35 35 35 35 35 35 34 34 33 33 33 32 31 30
40 41 43 45 46 47 47 46 45 47 49 49 47 47 46 43 41 45 49 49 47 49 50 49 49 49 47 46 47 47 44 41 41 41 41 42 43 43 43 43 45 47 48 48 46 46 46 46 46 45 44 43 42 41 40 39 38 37 37 36 36 36 36 36 36 36 36 35 34 34 33 31 30 29
41 41 42 45 47 48 49 48 47 47 48 50 49 47 47 46 45 47 50 50 50 51 52 49 48 50 48 46 47 48 45 43 42 40 39 40 42 43 42 42 44 46 48 48 48 47 47 47 47 46 45 45 44 43 41 40 39 38 38 38 38 37 37 37 37 36 36 36 35 34 32 30 28 28
40 40 41 43 45 47 48 49 49 48 48 50 50 48 48 48 47 48 50 51 52 53 53 52 50 49 47 46 47 49 49 46 42 40 40 39 42 43 42 43 45 46 46 48 48 48 48 48 48 47 46 45 44 43 42 41 40 40 39 39 39 38 37 37 36 36 36 35 35 33 31 29 28 27
37 38 39 41 43 46 48 48 50 50 49 50 52 51 50 50 48 48 50 52 52 53 53 53 52 49 48 47 48 50 53 48 41 40 41 40 41 43 42 43 45 46 46 47 47 48 49 49 49 48 47 46 44 43 42 41 41 41 40 40 39 37 36 36 35 35 35 35 34 32 30 28 27 27
35 37 38 40 40 42 46 48 50 51 50 50 52 52 51 51 50 49 51 53 53 53 53 53 53 51 49 49 49 51 52 49 44 42 40 40 42 41 42 43 44 46 47 47 47 48 48 48 49 48 47 46 45 43 43 42 42 41 40 38 37 36 35 35 35 35 35 34 33 31 30 28 27 27
36 35 36 38 38 38 42 46 48 50 50 50 51 51 51 51 50 48 51 53 53 53 52 52 53 53 52 50 50 51 51 49 47 44 41 41 40 39 40 43 43 44 44 44 46 47 46 46 46 46 46 45 44 43 43 42 41 39 38 37 36 35 35 35 35 35 34 34 33 31 30 28 28 27
37 34 32 34 36 36 38 42 45 47 49 49 49 51 51 51 49 48 50 53 52 52 52 52 53 54 53 51 50 51 51 49 48 47 44 41 39 38 39 41 42 42 42 42 45 45 44 43 43 43 44 44 44 43 41 40 39 37 36 36 35 35 34 34 34 34 34 34 33 32 30 29 28 28
37 34 29 29 32 34 35 38 41 43 46 48 49 50 49 49 50 49 50 52 53 52 51 52 53 54 53 51 52 52 51 48 47 47 45 43 41 41 40 40 42 43 41 41 43 42 41 42 42 42 44 44 43 41 39 38 36 36 35 35 34 34 33 33 33 33 34 34 33 32 31 30 29 29
34 33 28 26 28 31 32 36 39 41 44 47 48 48 46 46 50 51 49 50 52 52 51 51 52 53 53 52 52 52 49 47 45 44 43 43 43 43 41 40 42 42 40 41 41 40 39 40 40 41 43 43 41 39 37 36 35 34 33 33 33 32 33 33 33 33 34 34 34 32 32 31 30 30
31 30 27 26 27 29 33 36 38 40 43 45 46 46 45 44 48 50 49 49 51 51 51 52 52 52 52 51 51 49 48 48 47 45 44 43 42 43 41 39 39 40 39 39 40 39 37 37 37 38 40 40 39 38 36 34 33 32 31 30 31 31 32 32 32 33 33 34 34 33 32 32 31 30
28 27 26 27 28 30 34 36 36 37 40 43 45 46 46 43 45 48 49 49 51 51 50 52 53 53 52 51 49 49 49 50 48 47 48 46 43 43 41 38 37 37 36 37 38 39 38 36 36 37 38 38 38 37 35 32 30 29 28 27 28 29 30 31 31 32 33 33 34 34 33 33 32 31
27 26 24 26 29 31 33 35 35 35 36 39 43 45 46 45 44 46 47 48 49 49 49 51 52 53 53 51 50 51 51 51 50 49 48 46 45 45 41 38 38 37 36 37 37 38 38 37 37 38 38 38 38 37 34 31 29 27 26 26 27 28 29 30 31 31 32 33 34 34 34 34 33 32
26 26 24 24 27 30 33 34 34 35 35 37 40 43 45 46 45 45 46 48 48 46 47 49 50 51 52 51 51 52 53 53 51 49 47 45 46 46 41 38 39 38 38 38 37 37 38 38 39 40 39 38 38 35 32 30 28 27 26 26 26 27 28 30 30 31 32 33 33 34 34 35 34 33
26 26 24 24 26 30 33 34 35 36 36 36 37 39 40 43 45 46 47 49 49 46 46 48 48 49 50 51 51 52 52 53 50 48 48 46 46 45 42 41 41 40 40 39 37 37 38 38 39 39 38 37 37 34 32 30 28 27 26 26 27 27 28 29 30 30 30 31 32 33 33 34 35 34
25 26 23 23 27 29 33 36 36 37 37 38 38 38 38 39 42 45 46 48 49 47 46 46 46 47 48 50 51 51 50 50 49 49 50 49 48 48 47 46 45 42 40 38 36 37 37 37 37 36 35 36 35 33 32 30 29 28 27 27 27 27 28 29 29 29 29 30 31 32 32 33 33 33
23 24 23 23 27 30 33 36 38 37 37 37 39 40 40 39 40 41 42 44 46 45 44 44 46 47 48 48 49 49 48 48 49 50 51 51 50 50 50 49 46 43 41 39 38 36 35 35 35 34 34 35 34 33 32 31 31 30 29 29 28 28 28 28 29 29 28 29 31 32 32 32 31 30
21 21 21 21 26 30 32 34 37 38 37 37 37 39 40 41 40 38 38 41 43 43 43 44 45 47 48 48 48 48 48 48 49 51 52 51 50 50 51 50 47 44 43 40 37 36 34 34 33 33 34 35 34 33 33 32 32 32 31 30 30 29 29 29 29 28 28 29 31 32 32 32 31 29
23 19 19 19 22 28 30 32 35 37 38 37 37 37 39 40 40 38 37 39 41 42 43 43 44 47 48 48 48 47 47 47 48 50 51 51 50 50 52 52 49 46 43 38 36 36 35 34 33 34 35 35 34 34 33 32 33 34 33 33 32 31 30 30 29 28 28 29 31 32 33 33 33 31
27 22 20 19 18 23 28 30 32 34 36 37 37 37 39 40 39 38 38 39 39 40 42 42 43 45 48 48 47 48 47 46 48 50 50 50 51 51 52 53 50 47 44 40 37 37 36 35 35 36 36 35 35 34 32 32 34 35 35 35 34 33 32 31 30 30 29 29 30 31 32 33 33 32
29 25 22 20 17 16 22 27 29 30 33 35 36 37 39 40 39 39 39 39 37 38 41 42 42 44 47 47 47 47 47 47 48 50 49 50 50 50 52 54 53 49 47 44 40 38 39 39 38 37 37 37 36 34 32 33 34 35 36 36 35 34 33 32 32 31 29 28 28 29 30 31 31 30
30 27 24 21 16 11 12 19 24 26 27 31 32 35 40 41 39 39 39 37 35 36 39 41 42 44 45 46 46 45 46 47 48 49 48 48 49 48 51 55 55 51 50 47 42 42 44 43 39 37 38 39 38 35 33 34 34 35 36 36 36 35 34 33 33 32 29 27 26 26 28 28 29 28
31 27 25 22 17 11 9 11 18 21 22 24 27 32 37 38 36 37 38 36 34 35 37 38 40 42 43 44 44 44 44 45 46 48 48 48 49 48 49 52 54 54 52 49 45 44 46 45 42 39 39 40 41 38 35 34 34 35 36 36 36 35 35 34 33 32 30 27 25 25 26 27 27 28
31 28 26 23 19 12 9 9 11 16 17 18 23 28 32 34 34 35 36 36 34 35 37 39 40 41 42 42 42 42 43 43 45 47 49 49 49 49 48 50 53 54 52 49 47 48 48 46 43 41 40 42 43 40 37 36 35 35 36 36 35 35 35 34 34 33 31 29 27 26 26 27 28 28
30 29 27 24 20 14 9 8 6 10 13 13 18 24 27 29 32 34 34 35 35 36 37 39 41 41 41 42 42 42 42 43 45 47 48 49 50 49 48 49 51 53 53 51 49 48 47 45 44 43 43 44 44 43 40 38 36 35 35 35 35 35 35 35 34 33 32 31 30 29 29 29 29 29
29 29 28 24 21 17 11 7 4 5 11 12 13 19 25 27 28 31 32 32 34 36 37 37 38 39 40 41 42 42 42 43 45 46 47 48 49 48 47 48 50 52 52 52 50 48 47 45 44 43 43 43 43 42 39 37 37 37 36 35 35 36 36 35 34 33 33 32 32 32 32 32 32 31
29 28 28 26 23 20 15 10 6 2 10 12 9 12 22 28 27 27 28 30 32 35 36 35 34 36 38 39 39 40 40 41 42 44 45 45 46 46 45 46 48 50 50 50 50 49 47 45 43 43 43 43 42 40 39 39 39 39 37 36 35 36 36 37 36 35 34 34 34 35 35 35 34 33
29 28 28 27 24 22 19 14 9 3 6 11 10 8 16 25 29 28 27 28 32 35 35 34 33 35 37 36 35 35 37 39 40 41 42 43 44 44 44 44 44 45 46 47 47 48 47 46 45 44 43 42 42 42 42 41 42 41 39 37 36 36 37 38 38 38 37 36 36 36 36 36 35 34
29 28 28 28 25 22 20 16 12 7 4 6 11 10 11 18 27 31 30 29 31 34 35 34 32 32 35 34 33 33 34 36 38 39 40 41 42 42 42 42 42 42 43 43 44 47 48 48 47 46 45 44 44 44 43 41 42 43 42 40 38 38 39 39 39 40 40 39 37 36 36 36 36 35
27 27 27 27 27 24 21 19 15 11 8 4 7 10 10 10 16 26 33 34 32 32 34 36 35 33 31 31 32 32 33 34 36 37 37 40 41 40 40 40 41 42 43 42 41 43 45 45 45 47 47 46 45 45 44 42 40 40 40 39 38 38 40 41 41 41 41 41 39 37 36 36 36 37
25 26 25 25 26 25 22 20 17 14 11 8 5 5 8 10 10 16 27 35 35 31 29 33 37 36 32 30 31 32 33 35 37 37 37 38 39 40 40 40 40 41 43 42 40 42 43 44 43 44 44 43 44 45 44 41 38 37 38 38 37 38 41 42 43 43 43 44 42 40 37 37 38 38
24 25 23 22 23 23 23 21 18 16 14 10 8 5 3 7 11 13 18 27 34 33 27 25 30 34 35 35 34 33 34 36 38 39 40 40 40 40 41 40 40 41 41 41 41 42 44 45 44 43 43 44 45 45 44 41 39 39 41 41 40 39 40 41 42 42 43 45 45 43 41 40 39 39
23 24 23 21 20 20 21 21 20 18 16 13 10 9 5 2 6 11 14 18 25 30 28 23 22 25 29 33 35 35 37 39 39 40 42 41 41 41 42 41 41 41 41 40 40 41 42 43 42 42 43 44 46 46 46 45 44 44 45 44 42 41 41 41 42 41 41 42 43 43 42 41 40 39
22 22 22 21 20 19 19 20 20 19 18 16 14 11 9 6 2 4 10 13 16 21 24 23 22 24 26 28 30 33 36 39 40 41 42 41 41 42 41 41 42 42 42 42 42 42 43 41 39 39 41 42 43 46 48 49 49 48 46 44 42 43 42 41 40 40 40 39 40 40 40 40 39 38
21 21 21 20 19 18 18 18 19 19 18 18 16 15 12 10 8 4 3 7 11 14 18 20 23 25 28 28 27 28 31 33 36 38 39 40 41 41 41 41 42 42 42 42 42 43 43 41 40 40 40 37 35 36 40 42 42 42 42 43 43 43 42 39 38 38 39 40 42 42 41 40 39 38
20 19 19 19 19 18 17 17 17 17 17 17 17 17 16 14 12 9 6 4 6 10 13 16 18 22 25 26 25 26 27 29 31 33 36 38 40 41 42 43 43 42 41 40 40 42 42 41 41 41 41 39 38 36 35 35 34 35 38 42 44 44 43 42 42 42 41 42 43 43 42 40 39 40
18 18 18 18 18 17 17 17 17 16 17 17 17 17 17 16 15 13 10 8 5 4 7 10 13 17 21 23 23 24 24 25 27 30 33 37 41 43 44 44 44 42 42 42 42 41 41 40 40 39 39 42 45 43 42 41 40 39 40 42 43 43 44 44 45 46 45 43 43 43 41 40 39 40
16 16 16 16 17 17 17 17 17 17 17 17 17 17 17 17 16 15 14 12 10 8 5 4 6 10 14 17 19 21 23 23 23 25 28 31 35 39 41 42 42 41 42 43 44 44 43 42 42 42 42 44 45 44 43 44 44 44 44 45 46 46 45 44 45 46 46 44 44 45 45 44 43 42
16 16 16 16 17 17 17 17 18 17 17 17 17 18 17 17 17 17 16 15 13 12 11 9 7 6 7 10 12 15 18 19 19 21 23 25 28 31 35 37 37 37 38 40 43 44 45 46 46 47 47 47 46 43 41 41 42 43 44 46 47 47 47 47 48 48 48 48 48 50 50 49 47 45
17 17 17 18 18 19 19 19 19 20 19 19 19 19 18 18 17 17 17 17 16 14 13 12 12 11 9 8 8 9 11 13 15 17 19 21 23 26 29 32 34 35 36 38 39 40 41 42 44 45 45 45 45 43 42 41 42 43 43 43 45 46 47 49 52 53 53 53 52 52 51 50 48 47
20 19 19 20 20 21 21 21 21 22 22 21 21 21 20 20 19 18 18 18 18 17 16 15 13 13 13 12 12 11 10 10 12 13 15 17 19 22 24 27 30 32 34 36 39 40 42 42 43 44 44 44 44 43 43 42 43 43 43 44 45 47 48 50 52 53 53 52 50 50 49 48 46 45
24 23 22 22 22 22 23 23 23 23 23 22 22 22 22 22 22 21 20 20 19 19 19 19 18 16 15 15 15 14 14 12 12 12 13 14 15 17 19 21 23 26 29 32 35 38 40 43 45 45 45 45 45 44 44 44 44 45 46 47 48 50 50 51 51 52 51 51 50 50 49 49 47 46
Wind_Direction
265 263 261 256 252 249 249 250 248 244 242 242 234 226 225 225 225 228 233 232 228 233 237 236 240 246 247 246 246 245 246 245 239 237 237 237 236 234 230 229 229 229 230 231 233 235 237 239 240 241 242 243 245 247 250 253 256 259 262 264 265 266 266 267 268 269 268 268 268 270 272 274 275 277
265 263 261 257 253 250 247 248 249 245 241 239 234 228 225 225 226 231 237 233 226 229 234 233 236 245 248 246 245 245 245 245 240 236 236 236 236 234 232 230 230 229 230 231 233 235 237 238 240 241 242 243 245 247 250 253 256 259 261 263 264 265 266 267 268 269 268 268 268 269 271 273 275 276
266 262 260 257 254 252 249 246 246 245 240 236 235 233 229 227 230 235 238 231 225 227 232 231 231 239 245 244 244 246 245 243 241 237 235 236 236 235 233 232 231 230 230 232 233 235 237 238 239 240 241 243 245 247 250 253 255 258 260 261 263 264 265 267 268 268 268 267 267 268 269 271 273 274
269 262 259 258 255 253 252 249 246 246 242 236 236 236 232 231 235 239 238 230 224 227 231 231 230 234 239 239 240 244 245 243 241 238 235 236 236 236 235 234 233 232 232 233 235 237 238 239 239 240 241 243 244 246 248 251 254 256 259 260 262 264 265 267 268 268 267 266 266 267 268 269 271 272
274 265 258 256 255 253 253 252 250 248 244 239 237 235 233 235 237 239 237 230 225 227 232 235 235 235 236 236 237 241 244 245 243 239 236 236 236 235 235 236 235 233 234 235 236 238 239 240 241 241 242 243 244 246 248 250 253 255 257 259 261 263 264 265 267 267 266 265 265 266 268 269 270 271
277 271 262 256 254 254 253 252 252 249 245 242 239 234 233 235 236 238 237 231 226 226 232 239 239 236 236 237 238 238 240 243 241 238 236 235 235 235 236 236 234 233 234 235 237 239 240 241 242 242 242 243 244 246 248 250 252 254 256 258 260 261 263 264 265 265 264 264 264 265 266 266 267 269
279 274 267 260 255 253 252 251 251 248 244 242 240 236 234 234 236 239 236 231 229 227 231 239 240 238 239 240 240 238 237 238 236 234 234 234 235 235 236 236 234 233 234 236 238 239 240 241 242 243 243 244 245 247 248 250 252 254 256 258 260 260 261 262 262 262 262 262 262 262 262 262 264 266
283 276 269 264 260 254 250 247 247 246 243 241 239 237 235 233 235 239 234 230 230 229 231 237 240 239 239 240 242 240 238 237 234 231 232 232 233 235 236 237 236 234 235 237 238 239 240 241 241 242 243 244 245 246 248 251 253 255 257 259 259 258 258 258 258 258 259 259 258 257 258 259 261 263
290 281 271 266 263 257 251 245 244 244 242 241 238 236 235 233 235 237 235 232 232 231 231 235 237 238 237 239 242 242 239 237 234 232 231 230 231 233 236 239 239 237 237 238 239 239 240 241 241 242 243 244 245 247 249 252 254 256 258 258 256 254 254 254 254 255 255 254 253 253 255 258 260 262
295 287 275 267 263 259 253 246 242 241 240 240 237 236 235 233 233 235 235 233 233 233 232 233 235 237 236 238 241 242 239 236 234 233 232 231 232 233 235 239 240 239 238 238 239 239 240 242 242 242 242 244 246 248 251 253 255 255 255 253 252 251 251 251 252 252 251 250 250 251 254 258 260 261
297 291 279 268 263 259 253 247 241 239 239 239 235 234 235 233 231 234 235 233 232 232 232 233 234 235 236 237 238 239 238 235 233 234 235 234 234 235 235 237 240 240 238 238 239 239 240 242 243 242 243 245 247 249 251 252 252 251 250 249 249 248 249 249 249 249 249 249 249 250 253 256 258 260
296 293 283 271 265 259 252 244 239 237 238 237 233 233 235 234 231 232 234 233 231 230 230 231 232 233 233 235 237 237 236 235 234 236 237 234 233 234 234 235 238 238 236 236 238 239 241 242 243 243 245 246 247 248 248 248 247 247 247 247 247 247 247 247 248 248 248 248 249 250 253 255 256 258
293 290 282 272 266 260 250 240 234 233 234 233 231 231 233 234 233 232 234 234 232 230 229 229 230 231 230 232 235 236 236 235 234 234 234 231 229 230 231 232 235 236 235 234 235 237 240 240 241 243 244 244 245 245 244 244 244 244 245 246 247 247 247 247 248 248 248 248 249 250 252 254 255 256
293 288 277 268 262 254 245 239 234 232 233 232 230 230 231 232 233 233 234 235 232 230 229 229 230 230 230 231 233 234 236 236 233 231 231 231 230 230 230 230 232 234 235 235 233 234 236 236 237 240 241 241 242 242 240 240 241 242 244 245 246 248 249 249 249 250 250 249 250 250 251 253 254 255
296 291 275 262 259 250 241 238 235 234 235 233 231 232 233 234 234 233 233 234 232 230 230 229 229 230 230 231 231 232 234 236 234 231 231 233 234 232 231 230 230 232 234 234 232 232 233 233 235 239 240 239 239 239 237 237 239 241 242 244 247 250 252 252 252 251 251 250 250 250 251 253 254 255
297 297 280 261 257 252 243 237 235 234 236 235 234 235 236 237 237 235 234 234 233 232 230 229 229 230 231 232 231 231 233 235 235 233 232 233 234 233 232 231 230 230 232 232 231 231 232 234 237 240 239 238 237 236 235 236 238 240 242 244 248 252 255 255 255 254 253 251 250 250 252 253 253 255
296 298 287 264 254 251 247 241 236 235 236 237 237 238 239 239 239 238 237 238 237 235 233 231 231 230 231 232 231 230 232 234 235 236 236 234 232 231 231 230 229 230 231 232 231 232 234 235 237 238 237 236 235 234 233 236 237 238 241 244 247 252 256 258 258 257 256 254 252 252 253 253 254 255
298 301 292 270 255 250 248 245 241 238 238 237 238 240 241 241 240 239 239 239 240 240 236 233 232 231 231 232 231 230 231 233 235 237 237 234 230 228 228 228 228 229 230 230 229 230 233 233 233 234 233 233 233 232 233 235 236 237 241 245 249 253 257 260 260 260 258 257 256 255 255 255 254 254
302 308 299 274 259 252 247 245 244 242 240 239 240 242 243 242 242 241 240 239 240 240 237 233 232 231 231 232 233 232 232 234 236 237 237 235 232 229 227 227 229 229 229 229 228 229 231 231 230 230 230 231 232 232 232 234 236 238 241 246 251 255 258 261 262 262 261 259 257 256 256 256 255 254
309 315 305 279 263 257 251 246 243 242 241 240 241 243 244 244 242 242 242 240 239 238 235 233 230 228 229 231 230 230 230 232 235 237 237 236 234 230 226 226 228 229 229 229 230 230 231 231 229 228 230 232 232 232 232 234 236 239 243 247 251 255 259 261 262 263 262 261 259 257 256 256 256 255
312 319 313 288 263 256 254 250 245 243 241 239 240 242 244 244 242 241 242 240 237 235 233 230 228 227 228 228 227 227 229 230 234 236 237 237 235 230 225 224 226 228 227 227 229 229 228 229 229 229 232 233 234 234 233 234 237 241 244 248 252 256 259 261 261 263 264 264 262 259 257 256 256 256
312 318 321 306 272 255 253 254 251 248 244 241 239 240 243 244 241 240 240 238 236 233 232 230 228 227 227 226 225 227 230 231 233 236 236 237 235 229 224 222 224 226 225 223 224 224 225 227 229 232 234 234 235 236 236 236 240 243 245 249 253 257 260 261 260 262 266 268 266 261 257 255 255 255
314 315 320 319 294 262 251 252 253 252 250 246 241 239 241 242 241 238 237 237 235 233 232 231 228 226 226 227 227 229 232 233 235 236 236 235 234 229 223 221 222 223 223 220 220 223 227 229 230 233 236 237 236 237 237 238 241 244 247 250 254 257 259 259 259 261 267 271 268 262 257 254 253 254
318 315 314 321 316 281 255 249 250 252 252 250 245 240 239 239 239 238 237 236 235 234 232 230 227 225 226 228 229 231 233 235 236 237 237 236 235 231 224 220 221 222 223 222 221 225 230 231 231 233 238 240 239 238 238 240 243 246 249 251 253 256 257 258 258 261 268 273 270 262 256 253 252 252
321 317 312 318 327 319 281 260 253 251 253 252 247 241 238 237 236 236 237 237 235 233 233 231 229 227 228 230 232 233 235 236 237 238 238 236 236 232 226 222 221 222 225 225 223 225 230 231 231 233 237 243 244 241 240 242 245 248 251 252 253 254 255 256 257 259 265 272 271 262 254 251 251 251
324 321 315 317 325 338 338 296 264 249 248 250 245 239 238 237 235 234 236 238 236 233 233 232 232 231 232 233 235 236 237 238 238 238 238 236 235 233 228 224 222 223 226 226 224 226 230 232 233 235 239 244 246 244 242 243 245 249 252 253 252 252 253 255 257 258 262 268 269 263 256 252 251 251
326 326 321 319 322 333 0 344 286 250 240 245 245 240 236 234 232 233 234 235 235 232 231 230 231 233 234 236 237 238 239 239 238 238 237 236 234 231 229 227 225 225 227 228 227 229 233 234 235 239 242 244 246 245 244 244 246 249 253 253 251 251 251 254 256 258 259 263 265 263 259 255 253 253
329 331 326 323 324 327 352 10 316 251 233 237 243 239 232 227 227 229 230 230 229 227 226 226 227 229 231 233 235 237 238 238 237 236 235 235 234 232 229 228 227 226 227 228 229 231 234 237 239 241 243 244 245 246 246 246 248 250 253 253 251 249 250 253 256 258 259 261 262 261 259 257 256 255
331 334 332 329 328 330 339 1 354 241 221 224 231 224 220 220 221 222 224 224 223 222 222 223 226 228 229 231 233 233 234 234 234 233 234 233 233 232 231 230 228 226 226 227 230 234 237 240 242 244 244 244 246 248 248 249 250 252 253 252 250 249 249 251 254 257 259 261 261 260 258 257 257 257
332 335 336 336 335 335 334 335 339 246 211 219 224 204 204 211 217 217 216 218 219 219 219 221 225 228 229 231 232 231 230 230 230 229 230 231 231 231 230 228 226 225 226 228 231 235 239 240 242 243 244 244 246 249 252 252 251 251 251 251 250 250 250 251 253 255 258 261 262 261 258 256 255 255
331 334 338 340 340 337 333 328 324 308 216 217 224 201 187 196 206 212 211 212 216 219 215 212 217 222 223 223 226 227 227 227 227 226 225 226 228 228 228 227 226 225 226 229 231 236 239 240 240 240 240 241 244 249 251 251 248 247 248 249 250 251 251 252 253 256 259 261 262 259 257 256 255 254
328 332 336 339 340 338 336 334 328 319 288 221 220 218 190 181 192 203 207 208 214 217 210 200 201 212 215 213 214 219 222 223 223 224 224 224 225 225 226 226 226 226 227 229 232 236 239 239 239 237 237 239 243 246 248 249 246 245 247 250 250 251 252 253 254 257 258 259 258 257 256 255 255 254
323 328 332 335 339 340 338 338 337 328 318 285 226 222 217 198 191 194 200 206 213 215 209 199 195 201 207 208 208 211 214 216 217 218 222 224 225 226 226 226 225 226 227 227 229 233 235 237 238 238 238 239 241 242 246 249 247 244 245 248 249 250 252 254 255 256 256 256 254 254 254 254 253 252
318 322 326 331 335 338 338 339 341 340 333 318 286 236 223 229 222 198 195 203 212 217 214 207 203 202 200 201 207 211 211 212 213 213 217 221 223 224 227 226 225 225 225 224 225 230 234 236 237 237 236 237 239 243 245 245 243 241 243 246 248 253 256 256 254 254 254 253 252 251 252 252 252 252
315 316 320 325 329 333 338 339 341 344 345 335 315 300 246 222 230 222 204 202 210 218 220 210 203 202 199 199 204 209 211 213 214 213 214 217 220 223 225 224 223 223 225 225 225 229 233 233 232 231 231 234 240 244 243 239 240 244 248 250 253 256 256 254 253 253 253 252 251 251 251 252 251 252
313 313 313 318 323 328 334 339 342 344 347 349 338 320 311 257 215 222 219 210 209 213 216 211 206 208 206 203 204 207 209 212 216 216 216 216 218 222 225 225 224 224 224 225 227 230 232 232 231 232 235 238 241 242 241 240 244 248 250 253 255 254 250 248 249 252 253 253 251 251 251 250 250 249
309 309 308 311 317 323 328 333 340 344 346 350 353 343 329 324 307 214 215 217 214 211 210 211 216 221 220 214 211 210 209 211 214 217 218 218 218 221 224 226 228 229 229 229 229 232 234 235 235 237 240 242 244 244 243 244 246 247 249 251 250 246 243 245 248 249 249 249 249 248 247 247 246 246
308 307 307 308 312 318 322 326 331 337 342 346 351 353 348 336 327 314 224 212 215 213 209 208 210 215 217 216 213 211 209 210 212 214 215 215 216 217 220 223 227 229 230 231 231 233 235 236 237 237 237 235 234 238 242 243 243 243 245 245 243 240 239 241 241 241 241 243 244 244 243 242 241 242
307 306 305 307 310 314 319 324 326 329 335 340 344 348 352 350 342 332 312 260 223 211 208 208 210 213 214 214 213 210 208 208 211 213 214 214 215 217 219 222 224 225 225 227 229 231 233 234 235 237 234 224 215 217 227 233 232 232 236 240 241 239 238 236 237 239 241 242 242 241 240 240 240 242
306 305 303 305 310 314 317 321 325 326 327 331 335 339 342 345 346 345 338 324 300 249 216 211 215 219 220 220 221 220 217 212 210 210 212 214 216 218 220 220 221 221 220 221 225 229 232 232 232 235 232 223 217 220 228 232 230 229 233 237 238 238 238 238 239 241 241 239 237 237 240 244 246 247
304 304 304 305 309 313 316 318 321 323 323 323 325 328 330 332 335 339 341 340 334 327 313 270 233 225 224 225 227 228 228 226 221 217 215 214 215 216 216 217 218 218 217 219 223 229 233 234 233 233 231 228 229 233 237 237 235 234 235 237 238 239 240 241 241 240 239 235 235 240 248 252 253 252
298 298 300 302 305 308 312 314 315 316 318 319 319 319 321 323 324 326 328 331 333 332 331 329 319 288 252 240 236 232 230 230 229 227 225 224 223 221 220 221 223 225 224 223 224 228 231 233 234 233 233 234 237 240 240 238 237 238 240 241 242 242 242 241 239 238 237 237 241 247 253 255 254 254
291 291 292 295 299 301 304 307 309 310 311 312 313 314 314 315 316 316 317 318 320 322 323 325 325 322 312 298 279 259 244 238 235 232 229 229 229 229 228 229 230 231 232 231 230 231 232 233 234 235 237 239 242 242 241 239 239 240 242 244 245 245 244 242 240 239 240 241 245 249 252 253 253 254
287 287 287 288 291 294 298 300 303 304 305 306 307 307 307 307 308 309 309 309 310 310 311 310 311 311 312 310 306 297 283 267 255 247 240 234 231 231 232 233 234 235 236 236 236 236 236 237 238 239 240 242 242 242 242 241 240 240 241 242 243 245 245 244 243 243 243 244 246 247 248 249 250 251
285 286 287 287 286 287 290 293 295 297 298 299 299 300 300 301 301 301 302 302 302 302 303 303 303 301 300 298 298 298 297 293 286 277 269 259 250 244 241 239 238 238 238 239 239 240 240 241 241 242 243 243 243 242 242 242 242 242 243 243 244 244 244 244 243 243 244 245 246 246 246 245 246 247
Height
5798 5797 5797 5796 5796 5797 5798 5799 5799 5800 5801 5802 5803 5805 5808 5811 5813 5817 5818 5820 5826 5828 5829 5832 5834 5836 5837 5838 5838 5840 5842 5844 5845 5847 5850 5853 5855 5857 5860 5863 5866 5868 5870 5873 5875 5877 5880 5882 5884 5885 5887 5889 5891 5893 5894 5896 5897 5898 5898 5899 5899 5900 5900 5901 5901 5902 5902 5903 5903 5904 5904 5905 5905 5906
5791 5791 5791 5791 5791 5791 5792 5792 5792 5794 5795 5796 5797 5799 5803 5804 5807 5810 5812 5815 5821 5823 5824 5828 5831 5832 5833 5833 5834 5835 5837 5840 5840 5842 5845 5847 5850 5853 5856 5858 5860 5863 5866 5868 5871 5873 5875 5877 5878 5880 5882 5884 5887 5888 5890 5892 5893 5894 5894 5895 5895 5896 5896 5897 5897 5898 5899 5899 5899 5900 5900 5901 5901 5902
5784 5783 5783 5784 5784 5785 5786 5786 5786 5787 5788 5790 5792 5794 5796 5798 5800 5803 5805 5809 5814 5817 5819 5823 5825 5827 5829 5829 5830 5830 5832 5835 5835 5837 5840 5842 5845 5849 5851 5853 5856 5859 5862 5864 5867 5868 5870 5872 5874 5876 5878 5880 5882 5884 5886 5887 5888 5889 5890 5891 5891 5892 5892 5892 5893 5894 5894 5895 5895 5896 5896 5897 5897 5898
5778 5777 5776 5777 5778 5778 5779 5780 5780 5780 5781 5783 5786 5787 5790 5791 5794 5797 5799 5803 5809 5812 5813 5816 5818 5820 5822 5824 5826 5826 5827 5830 5831 5833 5836 5838 5842 5845 5847 5850 5853 5856 5859 5861 5863 5864 5866 5867 5870 5871 5873 5875 5877 5879 5881 5882 5884 5885 5886 5887 5887 5887 5888 5888 5889 5889 5890 5891 5891 5891 5892 5893 5893 5894
5771 5771 5771 5771 5771 5771 5772 5774 5775 5775 5775 5777 5779 5782 5784 5785 5788 5791 5793 5798 5805 5806 5806 5809 5812 5813 5816 5818 5820 5822 5823 5825 5826 5828 5832 5835 5838 5840 5843 5846 5848 5851 5854 5857 5858 5860 5861 5864 5866 5868 5869 5871 5872 5874 5876 5878 5879 5880 5881 5882 5882 5883 5883 5884 5884 5885 5886 5886 5887 5887 5888 5888 5889 5890
5763 5763 5764 5764 5764 5764 5765 5767 5768 5769 5771 5772 5773 5776 5778 5779 5782 5785 5788 5792 5798 5800 5801 5803 5805 5807 5810 5812 5814 5816 5817 5820 5822 5824 5828 5831 5833 5836 5839 5841 5843 5846 5849 5851 5853 5855 5857 5859 5861 5863 5865 5866 5867 5869 5871 5873 5874 5875 5876 5877 5878 5878 5878 5879 5879 5880 5881 5882 5883 5883 5884 5884 5885 5885
5756 5756 5755 5756 5756 5757 5758 5760 5761 5763 5765 5766 5767 5770 5772 5774 5777 5780 5783 5786 5790 5793 5796 5798 5799 5802 5804 5806 5808 5810 5811 5814 5818 5820 5823 5826 5828 5831 5834 5836 5838 5841 5844 5846 5848 5850 5852 5854 5856 5858 5860 5861 5863 5865 5866 5868 5869 5870 5871 5872 5872 5873 5873 5874 5875 5876 5877 5878 5879 5879 5880 5880 5881 5881
5749 5748 5748 5747 5748 5749 5750 5752 5754 5755 5757 5759 5761 5763 5766 5769 5772 5775 5778 5781 5783 5786 5790 5792 5794 5796 5798 5800 5802 5803 5805 5810 5814 5816 5818 5821 5824 5827 5829 5831 5833 5837 5839 5840 5843 5845 5846 5849 5851 5853 5855 5857 5859 5860 5862 5863 5864 5865 5866 5867 5867 5868 5869 5869 5870 5871 5873 5874 5875 5876 5876 5877 5877 5877
5743 5741 5740 5739 5740 5741 5742 5744 5746 5748 5750 5752 5754 5756 5759 5762 5766 5768 5771 5775 5777 5779 5783 5786 5788 5790 5792 5795 5796 5797 5800 5805 5810 5812 5814 5816 5818 5822 5824 5826 5829 5832 5834 5835 5837 5839 5841 5843 5846 5848 5850 5852 5854 5855 5857 5858 5859 5860 5861 5862 5862 5863 5864 5865 5866 5867 5868 5869 5870 5871 5872 5873 5873 5873
5737 5735 5733 5732 5733 5733 5734 5736 5739 5742 5744 5745 5747 5750 5753 5756 5760 5762 5764 5768 5771 5773 5776 5780 5782 5784 5787 5789 5791 5793 5795 5799 5804 5808 5809 5811 5814 5818 5820 5821 5823 5826 5828 5831 5832 5833 5836 5839 5841 5844 5846 5847 5849 5850 5852 5853 5854 5855 5856 5856 5857 5858 5859 5860 5862 5863 5864 5865 5866 5867 5868 5868 5869 5869
5730 5728 5726 5725 5725 5726 5727 5728 5731 5735 5737 5739 5741 5743 5746 5749 5753 5756 5758 5761 5765 5767 5769 5773 5776 5779 5782 5784 5786 5787 5789 5793 5798 5802 5805 5808 5811 5813 5815 5817 5818 5820 5823 5825 5826 5829 5832 5834 5837 5839 5841 5843 5844 5845 5846 5848 5849 5850 5851 5852 5853 5854 5855 5856 5857 5858 5859 5860 5861 5863 5864 5864 5864 5865
5724 5722 5721 5719 5719 5719 5720 5722 5724 5728 5731 5732 5734 5737 5740 5743 5746 5749 5751 5754 5758 5761 5764 5767 5770 5773 5777 5780 5781 5781 5783 5787 5793 5798 5801 5804 5806 5807 5809 5812 5812 5814 5817 5819 5821 5824 5827 5830 5832 5834 5836 5838 5840 5841 5842 5843 5844 5845 5846 5847 5848 5849 5850 5851 5852 5853 5855 5856 5857 5858 5859 5860 5860 5860
5719 5716 5715 5715 5714 5713 5714 5716 5718 5720 5722 5724 5727 5731 5734 5737 5739 5742 5744 5747 5751 5755 5758 5761 5764 5767 5771 5775 5776 5777 5779 5783 5788 5793 5796 5798 5800 5802 5804 5806 5807 5808 5811 5814 5817 5820 5822 5824 5827 5829 5831 5834 5835 5836 5837 5838 5840 5841 5842 5843 5844 5844 5845 5846 5847 5849 5850 5851 5853 5854 5855 5855 5856 5856
5715 5712 5710 5710 5709 5709 5708 5709 5712 5714 5716 5719 5722 5725 5728 5730 5732 5735 5738 5741 5744 5748 5751 5754 5757 5761 5766 5769 5771 5772 5775 5778 5782 5786 5790 5793 5796 5797 5799 5801 5802 5804 5807 5810 5813 5815 5817 5820 5822 5824 5827 5829 5831 5832 5833 5834 5835 5836 5837 5838 5839 5840 5841 5842 5843 5844 5846 5847 5848 5850 5850 5851 5852 5853
5710 5708 5706 5705 5704 5704 5704 5705 5708 5710 5713 5715 5717 5720 5722 5724 5726 5729 5732 5735 5738 5741 5745 5748 5751 5755 5760 5763 5766 5768 5770 5772 5776 5780 5783 5788 5791 5793 5795 5798 5799 5800 5803 5805 5807 5810 5812 5815 5817 5820 5823 5824 5826 5827 5828 5830 5830 5831 5833 5834 5835 5836 5836 5837 5839 5840 5841 5842 5844 5845 5846 5847 5848 5849
5706 5703 5701 5699 5699 5699 5700 5701 5703 5706 5708 5711 5713 5715 5717 5720 5722 5724 5727 5729 5732 5735 5739 5742 5745 5749 5754 5758 5761 5763 5765 5767 5770 5773 5777 5782 5786 5789 5791 5794 5795 5797 5799 5800 5802 5805 5807 5810 5814 5816 5819 5820 5821 5823 5824 5825 5826 5827 5828 5829 5830 5832 5832 5833 5834 5835 5836 5838 5839 5840 5842 5843 5844 5845
5701 5699 5696 5695 5694 5694 5696 5697 5698 5701 5704 5706 5709 5711 5713 5715 5717 5720 5722 5724 5726 5729 5733 5736 5740 5745 5749 5753 5756 5759 5760 5762 5764 5768 5772 5778 5781 5783 5787 5789 5790 5792 5794 5796 5799 5800 5803 5807 5810 5812 5814 5815 5816 5818 5820 5821 5822 5823 5824 5825 5826 5828 5828 5829 5830 5831 5832 5833 5834 5836 5837 5838 5839 5840
5698 5695 5692 5691 5690 5690 5691 5692 5694 5697 5699 5701 5704 5706 5708 5710 5712 5714 5717 5719 5720 5723 5727 5731 5736 5740 5744 5748 5751 5754 5755 5757 5760 5764 5768 5772 5775 5778 5782 5784 5784 5786 5789 5793 5795 5797 5799 5803 5805 5807 5809 5811 5812 5813 5815 5816 5818 5819 5820 5821 5822 5824 5824 5825 5826 5827 5828 5829 5830 5831 5833 5834 5835 5836
5694 5691 5689 5687 5686 5686 5686 5687 5690 5692 5694 5696 5698 5700 5702 5704 5706 5708 5711 5714 5716 5719 5722 5726 5730 5734 5738 5742 5746 5748 5750 5752 5755 5759 5762 5765 5769 5772 5776 5778 5779 5781 5786 5789 5792 5794 5796 5798 5800 5802 5804 5805 5807 5809 5811 5812 5813 5815 5816 5817 5818 5820 5820 5821 5822 5823 5824 5825 5826 5827 5828 5829 5830 5831
5691 5688 5686 5684 5682 5682 5682 5682 5684 5687 5689 5692 5693 5695 5697 5699 5700 5703 5705 5708 5711 5714 5717 5720 5724 5728 5731 5735 5739 5742 5744 5747 5750 5752 5755 5759 5762 5765 5769 5772 5775 5778 5782 5785 5787 5790 5792 5794 5796 5798 5799 5800 5802 5804 5806 5808 5809 5810 5812 5813 5814 5816 5816 5817 5818 5819 5820 5821 5822 5823 5824 5825 5826 5827
5689 5686 5683 5681 5678 5678 5677 5678 5680 5682 5685 5687 5689 5690 5692 5693 5696 5698 5701 5702 5705 5708 5711 5714 5718 5722 5725 5729 5733 5735 5738 5742 5745 5747 5749 5753 5757 5760 5763 5767 5770 5773 5777 5780 5783 5785 5787 5789 5791 5793 5794 5796 5798 5800 5801 5803 5805 5806 5808 5809 5810 5812 5813 5813 5814 5815 5816 5817 5817 5818 5819 5821 5821 5822
5686 5684 5681 5678 5676 5674 5674 5674 5675 5677 5680 5682 5684 5686 5687 5688 5691 5694 5696 5697 5700 5704 5706 5710 5714 5717 5720 5724 5728 5730 5733 5737 5740 5741 5744 5748 5751 5754 5758 5763 5766 5769 5772 5776 5778 5780 5783 5785 5787 5788 5790 5792 5794 5795 5797 5800 5801 5802 5803 5805 5806 5808 5809 5809 5810 5811 5812 5813 5813 5814 5815 5816 5817 5818
5684 5682 5679 5677 5674 5672 5671 5672 5672 5673 5674 5676 5679 5681 5682 5683 5686 5689 5691 5693 5696 5699 5703 5706 5710 5714 5716 5720 5723 5726 5729 5732 5734 5736 5739 5742 5744 5748 5754 5759 5762 5765 5768 5772 5774 5776 5779 5780 5782 5784 5786 5788 5790 5791 5793 5796 5797 5798 5799 5801 5802 5803 5804 5805 5806 5807 5808 5808 5809 5809 5810 5811 5813 5814
5683 5680 5677 5675 5672 5670 5668 5669 5669 5669 5670 5671 5673 5675 5677 5679 5682 5684 5686 5690 5694 5697 5699 5702 5706 5709 5712 5715 5718 5721 5724 5726 5728 5730 5733 5736 5738 5743 5749 5754 5757 5761 5764 5767 5770 5773 5774 5775 5777 5780 5782 5783 5785 5788 5790 5791 5792 5793 5795 5796 5797 5799 5799 5800 5802 5803 5803 5804 5804 5805 5806 5807 5808 5810
5681 5678 5675 5673 5671 5668 5666 5666 5666 5666 5666 5666 5668 5670 5671 5674 5678 5681 5683 5687 5691 5694 5696 5699 5702 5705 5708 5710 5714 5717 5719 5721 5724 5726 5729 5732 5734 5738 5744 5748 5752 5756 5759 5762 5766 5768 5769 5770 5773 5776 5778 5778 5780 5783 5786 5787 5788 5789 5790 5791 5793 5794 5795 5796 5797 5799 5799 5800 5800 5801 5802 5803 5804 5806
5679 5676 5673 5670 5669 5666 5664 5663 5663 5663 5663 5663 5664 5665 5667 5670 5675 5678 5680 5683 5687 5690 5692 5695 5698 5701 5704 5707 5709 5712 5715 5717 5720 5722 5724 5726 5728 5732 5738 5743 5747 5751 5754 5758 5762 5763 5763 5765 5768 5771 5774 5774 5775 5778 5781 5782 5783 5784 5785 5786 5788 5789 5790 5792 5793 5794 5795 5796 5796 5797 5798 5799 5801 5802
5677 5674 5671 5668 5666 5665 5662 5660 5660 5660 5661 5661 5661 5662 5664 5668 5672 5674 5676 5679 5683 5685 5687 5690 5693 5696 5699 5702 5704 5707 5710 5712 5714 5716 5719 5721 5723 5727 5732 5736 5740 5745 5749 5753 5756 5757 5757 5760 5764 5766 5768 5769 5769 5772 5775 5777 5778 5780 5780 5781 5783 5784 5785 5787 5788 5789 5790 5791 5792 5793 5794 5796 5797 5798
5675 5672 5669 5666 5664 5663 5660 5658 5657 5658 5658 5659 5658 5659 5661 5665 5667 5669 5672 5674 5677 5679 5682 5684 5687 5690 5693 5695 5698 5701 5703 5705 5708 5710 5713 5716 5718 5721 5726 5730 5734 5738 5742 5746 5749 5750 5752 5755 5758 5760 5762 5763 5764 5767 5770 5772 5773 5775 5776 5777 5778 5779 5780 5782 5783 5784 5785 5787 5788 5789 5790 5791 5792 5794
5674 5671 5668 5665 5663 5661 5659 5657 5656 5655 5656 5656 5656 5655 5657 5660 5663 5665 5667 5670 5672 5675 5678 5680 5683 5686 5688 5690 5692 5694 5696 5699 5701 5704 5707 5710 5713 5717 5721 5724 5727 5731 5735 5738 5742 5744 5747 5750 5753 5754 5756 5758 5759 5762 5765 5767 5768 5769 5771 5772 5773 5774 5776 5777 5779 5780 5780 5782 5783 5784 5785 5786 5788 5789
5672 5670 5667 5664 5661 5659 5657 5656 5654 5653 5653 5654 5654 5653 5654 5657 5659 5661 5663 5666 5668 5670 5673 5676 5679 5681 5683 5685 5687 5689 5691 5693 5696 5698 5702 5705 5708 5711 5715 5718 5721 5725 5729 5733 5736 5739 5742 5745 5747 5749 5751 5752 5754 5757 5759 5761 5762 5764 5765 5766 5767 5769 5771 5772 5773 5774 5775 5776 5778 5779 5780 5781 5783 5784
5670 5669 5666 5663 5661 5658 5656 5654 5653 5652 5651 5652 5652 5652 5652 5653 5656 5658 5660 5662 5663 5665 5668 5671 5673 5675 5677 5680 5682 5685 5687 5689 5691 5695 5698 5700 5703 5706 5709 5713 5717 5721 5724 5728 5732 5734 5736 5738 5740 5743 5745 5747 5749 5751 5754 5756 5757 5758 5760 5761 5763 5764 5765 5767 5768 5769 5770 5771 5772 5773 5775 5776 5778 5779
5669 5667 5665 5663 5661 5659 5656 5654 5652 5651 5650 5650 5650 5650 5650 5650 5652 5655 5657 5659 5660 5661 5663 5666 5668 5670 5671 5674 5676 5679 5682 5685 5688 5691 5694 5696 5699 5702 5705 5708 5713 5716 5719 5723 5726 5728 5729 5731 5734 5737 5740 5742 5743 5746 5748 5750 5751 5753 5755 5757 5759 5759 5759 5761 5762 5764 5765 5766 5766 5768 5770 5771 5773 5774
5668 5667 5665 5662 5660 5658 5656 5654 5652 5650 5649 5648 5648 5648 5649 5649 5649 5651 5654 5656 5658 5659 5660 5662 5664 5665 5667 5669 5671 5673 5677 5680 5682 5685 5689 5693 5696 5698 5701 5704 5708 5711 5713 5717 5720 5721 5723 5726 5728 5731 5734 5736 5738 5740 5743 5744 5746 5748 5749 5751 5753 5754 5754 5755 5757 5758 5759 5760 5761 5762 5764 5766 5767 5769
5668 5666 5665 5663 5660 5658 5656 5654 5652 5650 5648 5647 5646 5646 5647 5648 5648 5648 5650 5652 5655 5656 5658 5659 5661 5662 5664 5666 5668 5670 5672 5674 5677 5680 5683 5688 5691 5694 5696 5700 5703 5705 5708 5711 5714 5715 5717 5720 5723 5726 5729 5731 5733 5735 5737 5739 5741 5742 5743 5745 5747 5748 5749 5749 5751 5752 5753 5754 5755 5757 5759 5760 5761 5763
5667 5665 5664 5663 5661 5658 5656 5654 5652 5650 5648 5647 5645 5645 5645 5646 5646 5647 5647 5649 5651 5653 5655 5656 5658 5660 5662 5664 5665 5667 5669 5670 5673 5676 5678 5682 5685 5688 5690 5694 5697 5699 5702 5705 5708 5710 5712 5715 5717 5720 5724 5726 5728 5729 5731 5734 5735 5736 5737 5739 5741 5742 5743 5744 5745 5746 5747 5748 5750 5751 5753 5754 5756 5757
5666 5664 5663 5662 5660 5658 5656 5654 5652 5650 5648 5646 5645 5644 5643 5644 5644 5645 5645 5646 5648 5650 5651 5653 5655 5657 5659 5660 5661 5663 5665 5667 5668 5671 5674 5677 5680 5682 5685 5689 5691 5694 5696 5700 5702 5704 5706 5709 5712 5715 5718 5720 5722 5724 5726 5728 5729 5729 5731 5733 5735 5736 5737 5738 5739 5741 5742 5742 5744 5745 5747 5749 5751 5752
5664 5663 5661 5660 5659 5658 5656 5654 5652 5650 5648 5646 5645 5644 5643 5642 5642 5642 5643 5645 5646 5646 5647 5649 5651 5653 5655 5657 5658 5660 5662 5663 5665 5668 5670 5673 5676 5678 5681 5684 5687 5688 5691 5694 5697 5699 5701 5704 5707 5710 5712 5714 5716 5717 5719 5721 5722 5723 5725 5727 5729 5730 5731 5733 5735 5736 5736 5737 5738 5740 5741 5743 5745 5747
5662 5661 5660 5659 5658 5657 5655 5654 5652 5650 5648 5647 5646 5644 5643 5642 5641 5641 5642 5643 5644 5644 5645 5645 5647 5649 5651 5652 5654 5656 5658 5660 5662 5665 5667 5669 5671 5674 5676 5679 5681 5683 5686 5689 5691 5694 5696 5699 5702 5704 5707 5709 5710 5711 5713 5714 5715 5717 5719 5721 5722 5724 5726 5728 5729 5730 5730 5731 5732 5734 5736 5738 5740 5742
5661 5659 5658 5657 5656 5655 5655 5653 5652 5650 5649 5647 5646 5645 5644 5643 5642 5641 5641 5641 5642 5643 5643 5643 5643 5645 5647 5649 5651 5652 5654 5656 5658 5661 5663 5665 5667 5670 5672 5674 5676 5679 5681 5684 5686 5689 5691 5694 5696 5698 5701 5703 5704 5705 5707 5709 5710 5712 5713 5714 5715 5717 5720 5722 5723 5724 5725 5726 5727 5728 5730 5732 5734 5736
5659 5658 5657 5656 5655 5654 5653 5652 5651 5650 5649 5647 5646 5645 5644 5643 5643 5642 5641 5641 5641 5641 5641 5641 5641 5642 5644 5646 5647 5649 5651 5653 5654 5656 5658 5660 5663 5665 5667 5669 5671 5673 5675 5678 5681 5683 5686 5688 5691 5693 5695 5697 5699 5700 5702 5703 5705 5707 5708 5708 5709 5711 5713 5716 5717 5719 5720 5721 5722 5723 5725 5727 5729 5730
5657 5656 5655 5654 5653 5652 5652 5651 5650 5649 5648 5647 5646 5645 5644 5644 5643 5642 5642 5641 5641 5640 5640 5640 5640 5640 5642 5643 5644 5646 5647 5649 5651 5653 5655 5656 5658 5660 5662 5664 5666 5668 5670 5672 5675 5678 5680 5682 5685 5687 5689 5691 5693 5694 5695 5697 5699 5701 5702 5703 5704 5706 5708 5710 5712 5714 5715 5716 5717 5717 5718 5721 5723 5724
5655 5654 5654 5653 5652 5651 5650 5649 5649 5648 5647 5647 5646 5645 5644 5644 5643 5642 5642 5641 5641 5641 5640 5640 5639 5640 5640 5641 5642 5643 5644 5645 5647 5649 5651 5653 5655 5656 5657 5659 5661 5663 5665 5666 5668 5671 5674 5676 5678 5681 5682 5684 5686 5688 5689 5691 5692 5694 5696 5697 5699 5700 5702 5705 5706 5708 5709 5710 5711 5711 5712 5715 5717 5718
5653 5652 5652 5651 5650 5649 5649 5648 5647 5647 5646 5645 5645 5644 5643 5643 5643 5642 5642 5641 5641 5641 5641 5640 5640 5640 5640 5640 5641 5641 5642 5643 5644 5646 5647 5649 5651 5652 5654 5655 5657 5658 5659 5661 5663 5665 5667 5669 5671 5673 5675 5677 5679 5681 5683 5684 5686 5688 5689 5691 5693 5694 5696 5698 5699 5701 5702 5704 5705 5705 5707 5709 5710 5711
5650 5650 5650 5649 5649 5648 5647 5646 5646 5645 5644 5644 5643 5643 5642 5642 5641 5641 5641 5641 5640 5640 5640 5640 5641 5640 5640 5640 5640 5640 5641 5642 5643 5644 5644 5645 5647 5648 5649 5651 5652 5653 5654 5656 5658 5660 5661 5663 5665 5667 5669 5670 5672 5674 5676 5678 5680 5681 5683 5685 5687 5688 5689 5691 5692 5694 5695 5697 5698 5699 5701 5702 5703 5705
5647 5647 5647 5647 5646 5646 5645 5645 5644 5644 5643 5642 5642 5641 5641 5640 5640 5640 5640 5639 5639 5639 5639 5639 5639 5639 5640 5640 5640 5640 5640 5641 5642 5642 5643 5643 5644 5645 5645 5646 5648 5649 5650 5652 5653 5655 5656 5658 5659 5661 5663 5664 5666 5668 5670 5671 5673 5675 5677 5678 5680 5681 5683 5684 5685 5687 5688 5689 5691 5692 5694 5695 5697 5698